Location: Unspecified
(0.0000°N, 0.0000°E)
Time: 21:54:41
(UTC+00:00)

DX 1 - Visible Passes

Search period start: 22 January 2022 00:00
Search period end: 01 February 2022 00:00
Orbit: 617 x 631 km, 98.4° (Epoch: 22 January)

Date Brightness Start Highest point End Pass type
(mag) Time Alt. Az. Time Alt. Az. Time Alt. Az.
22 Jan ? 20:19:22 37° SW 20:19:22 37° SW 20:22:07 10° SSW visible
23 Jan ? 20:38:07 24° WSW 20:38:07 24° WSW 20:40:14 10° SW visible
24 Jan ? 19:19:37 17° ESE 19:19:37 17° ESE 19:21:45 10° SE visible
24 Jan ? 20:56:52 14° WSW 20:56:52 14° WSW 20:57:52 10° SW visible
25 Jan ? 19:38:24 27° SE 19:38:24 27° SE 19:41:11 10° SSE visible
26 Jan ? 19:57:09 39° SSE 19:57:09 39° SSE 20:00:05 10° S visible
27 Jan ? 20:15:55 37° SSW 20:15:55 37° SSW 20:18:37 10° SSW visible
28 Jan ? 20:34:41 25° SW 20:34:41 25° SW 20:36:50 10° SSW visible
29 Jan ? 19:16:12 14° ESE 19:16:12 14° ESE 19:17:48 10° SE visible
29 Jan ? 20:53:27 15° WSW 20:53:27 15° WSW 20:54:36 10° SW visible
30 Jan ? 19:34:59 23° SE 19:34:59 23° SE 19:37:26 10° SSE visible
31 Jan ? 19:53:45 33° SSE 19:53:45 33° SSE 19:56:26 10° S visible
